Location: Rounton
(54.4000°N, 1.3500°W)
Time: 02:41:27
(UTC+01:00)

YAOGAN 20A - Visible Passes

Search period start: 29 June 2022 00:00
Search period end: 09 July 2022 00:00
Orbit: 894 x 1285 km, 63.4° (Epoch: 28 June)

Date Brightness Start Highest point End Pass type
(mag) Time Alt. Az. Time Alt. Az. Time Alt. Az.
29 Jun 5.8 00:37:40 10° NW 00:44:24 60° NNE 00:51:49 10° ESE visible
29 Jun 5.4 02:28:18 10° NW 02:35:09 58° SW 02:42:38 10° SSE visible
29 Jun 6.1 23:48:03 10° NW 23:54:34 50° NNE 00:01:44 10° E visible
30 Jun 5.2 01:38:44 10° NW 01:45:42 79° SW 01:53:20 10° SE visible
30 Jun 6.2 03:29:52 10° WNW 03:35:34 26° WSW 03:41:37 10° SSW visible
30 Jun 6.3 22:58:20 10° WNW 23:04:39 43° NNE 23:11:34 10° E visible
01 Jul 5.4 00:49:11 10° NW 00:56:06 79° NE 01:03:43 10° SE visible
01 Jul 5.8 02:39:58 10° NW 02:46:25 38° WSW 02:53:21 10° S visible
01 Jul 5.7 23:59:38 10° NW 00:06:24 62° NNE 00:13:50 10° ESE visible
02 Jul 5.4 01:50:16 10° NW 01:57:06 55° SW 02:04:31 10° SSE visible
02 Jul 6.8 03:42:27 10° WNW 03:46:28 16° WSW 03:50:39 10° SW visible
02 Jul 6.0 23:10:01 10° NW 23:16:35 51° NNE 23:23:47 10° E visible
03 Jul 5.2 01:00:42 10° NW 01:07:39 77° SW 01:15:17 10° SE visible
03 Jul 6.3 02:51:54 10° WNW 02:57:29 25° WSW 03:03:23 10° SSW visible
04 Jul 5.3 00:11:09 10° NW 00:18:04 81° NE 00:25:42 10° SE visible
04 Jul 5.9 02:01:58 10° WNW 02:08:19 37° WSW 02:14:25 13° S visible
04 Jul 5.6 23:21:36 10° NW 23:28:23 64° NNE 23:35:51 10° ESE visible
05 Jul 5.5 01:12:15 10° NW 01:19:02 53° SW 01:25:35 13° SSE visible
05 Jul 6.9 03:04:36 10° WNW 03:08:21 15° WSW 03:12:14 10° SW visible
05 Jul 5.9 22:31:59 10° NW 22:38:34 52° NNE 22:45:48 10° E visible
06 Jul 5.3 00:22:39 10° NW 00:29:37 74° SW 00:36:54 11° SE visible
06 Jul 6.5 02:13:57 10° WNW 02:19:23 24° WSW 02:23:56 14° SSW visible
06 Jul 5.3 23:33:06 10° NW 23:40:03 84° NE 23:47:41 10° SE visible
07 Jul 6.0 01:23:56 10° WNW 01:30:15 35° WSW 01:35:21 17° S visible
07 Jul 5.6 22:43:33 10° NW 22:50:22 65° NNE 22:57:51 10° ESE visible
08 Jul 5.6 00:34:12 10° NW 00:40:58 51° SW 00:46:51 16° SSE visible
08 Jul 7.0 02:26:48 10° WNW 02:30:14 14° WSW 02:33:46 10° SW visible
08 Jul 5.3 23:44:37 10° NW 23:51:33 71° SW 23:58:26 13° SSE visible
